Wind_Speed
4 3 3 3 3 3 3 3 3 3 2 2 2 3 3 3 3 3 3 3 3 3 4 4 4 4 4 4 4 5 5 5 6 6 6 6 5 4 5 5 6 6 6
4 4 4 3 3 3 3 3 3 3 3 3 3 4 4 4 4 4 4 4 4 4 4 4 5 5 5 5 5 5 6 6 6 6 7 6 6 5 5 6 6 6 6
4 5 4 4 4 4 4 4 3 3 3 3 4 4 4 5 4 4 4 5 5 5 6 6 6 6 6 6 6 6 6 7 7 7 7 7 7 7 6 6 6 7 7
5 5 5 5 5 5 4 4 4 4 4 4 4 5 5 5 5 5 5 5 6 6 7 7 7 6 6 7 7 8 7 8 8 8 8 8 8 8 7 7 7 7 7
6 6 5 5 6 5 6 6 6 6 6 6 5 5 5 5 5 5 6 6 6 6 7 6 7 7 6 7 8 8 8 9 9 9 9 9 9 9 9 8 8 8 8
6 6 6 7 6 6 6 6 6 7 7 6 6 6 6 6 6 6 6 6 7 7 7 7 7 7 7 7 8 8 8 9 9 10 10 9 9 10 9 9 9 9 10
7 7 6 7 7 7 7 6 6 6 6 6 6 6 6 7 6 6 6 6 7 7 8 8 8 8 8 8 8 9 9 9 10 10 10 10 9 9 10 10 10 11 11
8 8 7 7 7 7 7 7 6 7 7 6 7 6 7 7 7 7 7 7 7 7 8 9 9 9 9 9 10 9 9 10 10 10 10 9 9 9 10 10 11 11 11
7 8 8 8 7 8 7 7 7 7 7 6 7 7 7 7 7 7 7 7 7 8 9 9 9 9 10 11 11 11 11 10 10 10 10 10 10 9 9 10 10 11 11
8 8 8 8 8 8 8 8 8 8 7 7 7 7 7 8 8 8 9 8 8 9 9 9 9 10 10 10 10 11 11 11 11 10 10 10 10 10 10 10 10 11 12
7 8 8 8 8 8 8 8 8 8 8 7 7 8 8 8 8 9 8 8 8 9 9 9 9 10 10 9 10 10 11 11 11 11 10 10 10 11 11 10 11 11 11
8 8 8 8 8 8 8 8 7 7 8 8 8 8 9 9 9 9 9 8 9 9 9 9 9 9 9 9 10 10 11 11 11 10 10 10 10 10 11 10 10 11 11
8 8 8 8 8 8 8 7 7 8 8 8 8 9 9 9 10 9 10 9 9 9 10 10 9 10 10 10 10 10 10 10 11 11 11 11 10 11 11 10 10 10 11
8 8 9 9 8 8 7 7 7 8 8 8 9 8 8 8 8 9 9 9 9 10 10 10 11 11 11 11 10 11 11 10 10 10 11 11 11 11 11 11 11 10 11
8 8 8 8 8 7 7 7 7 7 7 8 8 8 8 8 8 8 8 8 9 10 10 10 10 10 10 10 11 11 11 11 11 10 10 10 10 10 11 11 11 11 11
8 8 8 7 7 7 7 7 7 7 7 7 8 9 8 8 8 8 8 8 9 10 10 10 10 10 11 11 11 10 11 11 12 11 10 10 10 10 10 10 11 11 11
8 8 8 7 7 6 6 7 7 8 8 7 8 8 8 8 8 8 8 8 8 9 9 9 9 10 10 10 10 10 11 11 11 11 10 10 10 10 10 10 10 10 11
8 7 7 7 6 6 6 7 7 7 7 7 8 8 8 8 8 8 7 8 8 8 8 9 9 9 9 10 10 9 10 10 10 10 10 10 10 10 11 11 11 10 10
6 6 6 6 6 6 6 6 7 7 7 7 7 7 7 7 6 7 7 7 7 7 7 7 8 8 8 9 8 8 9 9 10 10 10 11 11 11 11 11 11 11 11
5 6 6 6 6 6 6 6 6 7 7 6 6 6 6 5 5 5 5 5 6 6 6 7 7 8 8 8 7 8 8 8 9 10 10 11 11 10 11 11 11 11 11
5 5 5 6 6 6 5 5 6 6 5 5 5 5 5 4 4 4 4 4 5 6 6 6 6 7 8 8 8 8 9 9 9 9 10 10 11 11 11 11 11 11 11
5 5 5 6 5 5 5 5 5 5 5 4 3 3 3 3 3 3 4 4 5 5 6 6 6 7 8 8 8 8 8 9 9 9 10 10 10 11 11 10 10 10 10
5 5 6 6 5 6 5 5 5 5 4 4 4 3 3 3 3 3 4 4 4 5 5 5 6 6 6 6 7 7 8 8 8 8 10 10 10 10 10 10 10 10 10
5 5 6 6 5 5 5 4 4 4 4 4 4 3 3 3 4 4 4 5 5 5 4 4 5 5 5 6 6 6 6 6 7 7 8 8 9 9 9 9 9 10 10
5 5 5 5 5 5 4 4 4 4 4 3 3 3 3 3 4 4 4 4 4 4 4 4 4 5 5 5 5 5 5 5 5 6 7 8 8 8 9 9 10 10 10
5 5 5 5 5 5 5 4 4 4 3 3 3 4 4 3 3 4 5 5 4 4 4 5 6 5 5 5 5 5 5 6 6 6 7 8 8 8 9 10 10 10 10
Wind_Direction
359 351 347 345 340 331 322 319 324 307 294 294 308 312 312 307 307 300 300 300 283 254 249 253 250 232 230 233 229 229 230 230 232 228 227 225 224 228 228 218 215 222 224
344 340 327 326 323 321 322 318 317 305 305 312 307 306 303 299 297 293 292 284 268 255 253 254 247 231 235 237 236 232 231 234 240 240 235 234 234 235 235 231 227 230 228
332 330 321 312 304 303 308 314 315 312 312 309 304 296 299 295 296 296 288 276 263 258 257 256 247 235 239 238 239 240 237 241 244 244 242 242 241 240 235 232 238 237 236
320 314 315 307 300 297 297 299 302 298 297 298 300 296 294 294 293 290 285 276 268 266 261 255 248 237 242 243 245 248 245 246 248 247 248 246 243 242 239 237 239 239 243
310 308 305 295 294 297 299 298 296 293 293 294 295 292 287 283 287 288 287 278 269 269 264 256 250 244 249 251 250 251 251 247 250 250 250 249 245 243 242 243 243 244 245
306 304 304 292 293 297 296 295 291 287 290 291 293 288 287 283 278 278 280 277 269 269 259 250 247 246 250 253 253 254 256 252 250 252 252 253 250 246 246 247 248 248 249
306 309 308 299 293 294 291 290 289 286 290 293 292 286 281 279 275 272 271 273 269 264 254 248 247 247 250 253 253 254 255 256 254 255 254 252 252 250 248 248 249 251 252
299 302 301 295 292 290 288 286 285 288 290 289 288 284 281 276 270 268 266 267 268 264 259 252 249 248 251 255 254 255 257 258 258 258 257 253 251 254 255 253 253 255 255
300 299 299 295 297 295 290 287 287 289 288 287 288 286 284 281 275 271 269 268 265 265 262 255 253 250 254 255 255 256 258 257 257 258 256 255 253 255 256 255 256 255 256
303 301 299 295 296 298 297 292 288 284 286 287 288 287 287 285 278 271 265 260 256 260 260 255 253 251 253 254 254 256 257 255 256 259 258 257 253 254 256 257 257 258 258
308 308 302 299 300 301 301 297 292 284 284 287 290 287 288 288 282 276 269 263 261 262 260 259 257 253 253 254 256 257 258 255 255 258 258 256 256 256 258 260 259 259 259
311 309 305 299 302 299 298 296 294 288 285 286 289 290 289 286 284 277 270 270 269 266 261 261 259 257 258 259 257 258 258 257 259 256 258 258 257 257 259 261 263 261 260
314 313 306 300 299 298 298 297 293 288 286 285 284 286 289 284 282 280 273 269 268 268 262 260 263 263 262 260 256 255 256 257 258 255 255 254 255 257 260 264 263 261 259
312 312 306 297 293 292 292 293 289 286 285 284 286 282 287 288 282 278 276 271 266 267 265 262 262 266 264 259 255 255 254 256 256 255 254 253 254 255 259 262 261 260 261
312 311 310 302 294 291 289 290 289 286 286 281 280 285 290 288 284 278 272 268 268 265 265 265 264 266 265 259 255 256 253 253 251 253 253 252 253 256 258 258 256 258 261
313 315 310 308 301 297 292 289 289 285 285 281 284 287 289 287 284 280 275 270 269 267 263 265 265 266 264 262 258 253 251 250 249 247 250 252 253 256 258 257 254 256 262
311 311 317 312 304 301 301 296 290 285 286 287 290 291 290 286 281 279 274 270 269 269 267 266 266 267 265 262 258 257 255 250 247 246 251 255 258 259 259 259 258 262 264
312 313 317 316 310 308 306 301 295 290 291 292 291 291 293 288 282 278 273 270 269 268 267 269 268 265 264 262 260 260 256 249 247 248 251 255 260 261 258 258 259 262 264
318 319 319 320 316 310 308 305 299 298 297 294 293 295 294 288 280 275 275 271 271 271 271 272 267 262 265 268 261 259 256 251 250 251 255 256 258 259 258 260 258 259 264
322 324 328 326 321 317 316 312 308 303 302 301 302 298 299 290 279 278 277 274 274 274 275 273 272 265 266 268 263 256 253 253 252 255 259 257 256 257 259 261 258 259 262
317 324 328 329 324 322 321 316 312 306 305 307 319 311 305 302 285 277 280 278 277 279 279 277 277 275 269 266 264 261 255 255 255 259 260 257 254 256 259 261 258 260 261
322 323 325 324 323 323 318 318 320 323 322 320 324 329 322 313 299 287 286 284 279 284 281 279 279 280 275 270 266 263 261 262 262 259 259 262 258 258 261 262 263 265 266
335 330 325 321 320 320 315 314 320 324 332 329 327 327 330 311 301 302 297 287 285 288 285 280 282 287 281 276 273 269 265 265 262 259 261 263 265 267 267 268 270 269 272
339 332 328 325 324 328 321 309 313 320 330 331 328 323 314 307 306 305 298 294 296 291 291 290 290 284 285 286 285 281 271 266 266 266 267 267 268 269 270 270 269 273 277
339 332 325 324 318 320 326 316 312 311 319 327 337 335 319 304 307 313 310 301 303 299 297 294 284 288 287 288 289 288 279 271 270 271 272 272 273 273 271 270 271 276 278
335 333 326 321 314 312 318 314 310 307 308 312 322 330 330 323 312 314 314 305 302 300 300 302 289 287 292 289 287 287 284 275 278 278 274 271 272 272 272 271 274 277 279
Height
5871 5871 5870 5870 5869 5869 5868 5868 5868 5867 5867 5867 5867 5867 5867 5867 5867 5867 5867 5868 5868 5868 5869 5870 5870 5871 5872 5873 5873 5874 5875 5875 5876 5877 5878 5878 5879 5880 5880 5881 5882 5883 5883
5871 5870 5870 5869 5869 5868 5868 5868 5867 5867 5866 5866 5866 5866 5866 5867 5867 5867 5867 5867 5868 5868 5868 5869 5870 5871 5871 5872 5872 5873 5874 5875 5875 5876 5877 5877 5878 5879 5879 5880 5881 5882 5882
5870 5870 5869 5869 5868 5868 5867 5867 5867 5866 5866 5866 5866 5866 5866 5866 5866 5866 5866 5866 5867 5867 5868 5868 5869 5870 5870 5871 5872 5872 5873 5873 5874 5875 5876 5877 5877 5878 5878 5879 5880 5881 5881
5869 5869 5868 5868 5867 5867 5866 5866 5866 5866 5865 5865 5865 5865 5865 5865 5865 5865 5865 5865 5866 5866 5867 5867 5868 5868 5869 5870 5871 5871 5871 5872 5873 5874 5874 5875 5876 5876 5877 5878 5879 5879 5880
5868 5868 5867 5867 5866 5866 5866 5865 5865 5865 5864 5864 5864 5864 5864 5864 5864 5864 5864 5864 5864 5865 5866 5866 5867 5867 5868 5868 5869 5870 5870 5871 5872 5872 5873 5874 5874 5875 5876 5876 5877 5878 5878
5867 5867 5866 5865 5865 5864 5864 5864 5864 5863 5863 5863 5863 5863 5863 5862 5862 5863 5863 5863 5863 5864 5864 5865 5865 5866 5866 5867 5868 5869 5869 5869 5870 5871 5872 5872 5873 5873 5874 5875 5875 5876 5877
5866 5866 5865 5864 5863 5863 5863 5863 5862 5862 5862 5862 5862 5861 5861 5861 5861 5861 5861 5862 5862 5862 5863 5863 5864 5864 5865 5866 5866 5867 5868 5868 5869 5869 5870 5870 5871 5872 5872 5873 5874 5874 5875
5865 5864 5864 5863 5862 5862 5862 5861 5861 5861 5860 5860 5860 5860 5860 5860 5859 5859 5860 5860 5860 5861 5861 5862 5862 5863 5863 5864 5865 5865 5866 5866 5867 5867 5868 5868 5869 5870 5870 5871 5872 5872 5873
5863 5863 5862 5862 5861 5860 5860 5859 5859 5859 5859 5859 5858 5858 5858 5858 5858 5858 5858 5858 5859 5859 5859 5860 5860 5861 5862 5862 5863 5863 5863 5864 5865 5865 5866 5866 5867 5868 5868 5869 5870 5870 5871
5862 5861 5861 5860 5859 5859 5858 5858 5857 5857 5857 5857 5857 5857 5856 5856 5856 5856 5856 5856 5857 5857 5857 5858 5858 5859 5859 5860 5860 5861 5861 5862 5863 5863 5864 5864 5865 5866 5866 5867 5867 5868 5868
5861 5860 5859 5858 5858 5857 5857 5856 5856 5855 5855 5855 5855 5855 5855 5854 5854 5854 5854 5854 5854 5855 5855 5856 5856 5856 5857 5858 5858 5859 5860 5860 5861 5861 5862 5862 5863 5864 5864 5865 5865 5865 5866
5859 5858 5858 5857 5856 5856 5855 5854 5854 5854 5854 5853 5853 5853 5853 5852 5852 5852 5852 5852 5852 5853 5853 5854 5854 5854 5855 5855 5856 5857 5857 5858 5858 5859 5860 5860 5861 5862 5862 5862 5863 5863 5863
5858 5857 5856 5855 5854 5854 5853 5853 5853 5852 5852 5852 5851 5851 5850 5850 5850 5850 5850 5850 5850 5851 5851 5851 5852 5852 5853 5853 5854 5854 5855 5856 5856 5857 5858 5858 5859 5859 5860 5860 5860 5861 5861
5856 5855 5854 5854 5853 5852 5852 5851 5851 5850 5850 5850 5849 5849 5849 5848 5848 5848 5848 5848 5848 5849 5849 5849 5849 5850 5850 5851 5852 5852 5853 5853 5854 5855 5856 5856 5856 5857 5858 5858 5858 5859 5859
5855 5854 5853 5852 5851 5850 5850 5850 5849 5849 5848 5848 5847 5847 5847 5846 5846 5846 5846 5846 5846 5846 5847 5847 5847 5847 5848 5848 5849 5850 5850 5851 5852 5852 5853 5854 5854 5855 5855 5856 5856 5857 5857
5854 5853 5851 5850 5850 5849 5848 5848 5847 5847 5847 5846 5846 5845 5845 5844 5844 5844 5844 5844 5844 5844 5844 5845 5845 5845 5845 5846 5846 5847 5848 5848 5849 5850 5851 5851 5852 5852 5853 5853 5854 5854 5854
5852 5851 5850 5849 5848 5848 5847 5846 5846 5845 5845 5844 5844 5843 5843 5843 5842 5842 5842 5842 5842 5842 5842 5843 5843 5843 5843 5843 5844 5844 5845 5846 5847 5847 5848 5849 5850 5850 5850 5851 5851 5852 5852
5850 5850 5849 5848 5847 5846 5846 5845 5844 5844 5843 5843 5842 5842 5841 5841 5840 5840 5840 5840 5840 5840 5840 5840 5841 5841 5841 5841 5842 5842 5843 5843 5844 5845 5846 5847 5847 5848 5848 5849 5849 5849 5850
5849 5848 5848 5847 5846 5845 5845 5844 5843 5843 5842 5841 5841 5840 5839 5839 5839 5839 5838 5838 5838 5838 5838 5839 5839 5839 5839 5839 5839 5840 5840 5841 5842 5843 5844 5844 5845 5845 5846 5846 5847 5847 5847
5848 5847 5847 5846 5845 5844 5843 5843 5842 5841 5840 5840 5839 5838 5838 5837 5837 5837 5837 5837 5837 5837 5837 5837 5837 5837 5837 5837 5838 5838 5838 5839 5840 5841 5841 5842 5842 5843 5843 5844 5844 5844 5845
5847 5846 5846 5845 5844 5843 5843 5842 5841 5840 5839 5839 5838 5837 5837 5836 5836 5836 5836 5836 5836 5836 5835 5835 5835 5835 5835 5835 5836 5836 5837 5837 5838 5838 5839 5839 5839 5840 5840 5841 5841 5842 5842
5846 5846 5845 5844 5843 5843 5842 5841 5840 5839 5839 5838 5837 5837 5836 5836 5835 5835 5835 5834 5834 5834 5834 5834 5834 5834 5833 5833 5834 5834 5835 5836 5835 5836 5836 5836 5837 5837 5838 5838 5839 5839 5839
5846 5845 5844 5844 5843 5842 5841 5841 5840 5839 5838 5837 5837 5836 5836 5835 5835 5835 5834 5834 5833 5833 5833 5832 5833 5832 5832 5832 5832 5832 5833 5833 5833 5834 5834 5834 5834 5835 5835 5836 5836 5836 5837
5845 5844 5844 5843 5842 5841 5841 5840 5839 5839 5838 5837 5836 5836 5835 5835 5834 5834 5833 5833 5833 5833 5832 5832 5832 5832 5831 5831 5831 5831 5831 5832 5832 5832 5832 5832 5832 5832 5833 5833 5834 5834 5834
5844 5844 5843 5842 5842 5841 5840 5839 5839 5838 5837 5837 5836 5835 5835 5834 5834 5833 5833 5833 5832 5832 5832 5831 5831 5831 5830 5830 5830 5830 5830 5830 5831 5831 5830 5830 5830 5830 5830 5831 5831 5831 5832
5844 5843 5842 5841 5841 5840 5839 5839 5838 5838 5837 5836 5836 5835 5834 5834 5833 5833 5832 5832 5832 5831 5831 5831 5830 5830 5830 5829 5829 5829 5829 5829 5829 5829 5829 5828 5828 5828 5828 5828 5828 5829 5829